Temperature
12 13 13 13 13 12 11 11 11 11 11 12 12 12 13 13 14 14 14 14 14 14 14 14 14 14 14 13 13 13 13 12 12 12 12 12 11 11 11 11 11 11 10 10
12 12 12 12 12 12 11 11 11 11 11 12 12 12 13 13 13 13 14 14 14 14 14 14 14 14 13 13 13 13 12 12 12 12 11 11 11 11 11 11 10 10 10 10
10 11 12 11 12 12 11 11 11 11 12 11 11 11 12 13 13 13 14 14 14 14 14 14 13 13 13 13 12 12 12 12 12 11 11 11 11 11 10 10 10 10 10 10
9 11 12 12 12 12 12 11 10 11 11 11 11 12 13 13 13 13 13 13 13 13 13 13 13 13 12 12 12 12 12 11 11 11 11 11 10 10 10 10 10 9 9 9
8 9 10 11 11 11 11 11 10 10 10 11 11 11 12 13 13 13 13 13 13 13 13 13 13 12 12 12 11 11 11 11 11 11 10 10 10 10 10 9 9 9 9 9
8 10 10 11 11 11 11 10 10 10 10 10 10 9 10 12 12 12 12 12 12 12 12 12 12 12 11 11 11 11 11 10 10 10 10 10 10 9 9 9 9 9 8 8
7 8 9 9 10 11 11 10 10 10 10 10 9 10 11 11 12 12 12 12 12 12 12 12 11 11 11 11 11 11 10 10 10 10 9 9 9 9 9 9 9 8 8 8
7 8 9 9 9 9 9 10 11 11 11 10 10 11 11 11 11 11 11 11 11 11 11 11 11 11 11 10 10 10 10 9 9 9 9 9 9 8 8 8 8 8 8 7
7 8 9 9 10 10 10 10 10 10 11 10 10 10 10 10 10 10 11 10 10 10 10 10 10 10 10 10 9 9 9 9 9 9 8 8 8 8 8 8 7 7 7 7
6 7 8 9 10 10 10 10 10 10 10 10 10 10 9 10 10 10 10 10 10 9 9 10 10 9 9 9 9 9 9 8 8 8 8 8 7 7 7 7 7 7 6 6
5 6 8 9 9 9 9 9 10 10 10 9 9 9 9 9 9 9 9 9 9 9 9 9 9 9 9 9 9 8 8 8 8 7 7 7 7 7 7 7 7 6 6 6
6 7 7 8 9 9 9 9 9 9 9 9 9 9 8 8 8 8 8 8 8 8 8 8 8 8 8 8 8 8 8 7 7 7 6 6 6 6 6 6 6 6 5 5
8 8 8 8 8 8 8 8 9 8 8 8 8 8 8 8 8 7 8 8 8 8 8 7 7 8 8 7 7 7 7 7 7 6 6 6 5 5 5 5 5 5 5 4
8 8 7 8 8 8 8 8 8 8 8 7 7 7 7 7 7 7 7 7 7 7 7 7 7 7 7 6 6 6 6 6 6 6 6 5 5 5 5 5 4 4 4 4
7 7 7 7 7 7 7 7 7 7 7 7 7 7 7 7 7 6 6 6 6 6 6 6 6 6 6 6 6 6 6 6 5 5 5 5 5 4 4 4 4 4 3 3
7 7 7 7 7 7 7 7 6 6 6 6 6 6 6 6 6 6 6 6 6 6 6 6 6 6 5 5 5 5 5 5 5 5 5 4 4 4 4 3 3 3 3 3
5 6 6 6 6 6 6 6 6 6 5 5 5 5 5 5 5 5 5 5 5 5 5 5 5 5 5 5 5 5 4 4 4 4 4 3 3 3 3 3 3 2 2 2
5 5 5 6 6 5 5 5 5 5 5 5 5 5 5 5 5 5 4 4 4 4 4 4 4 4 4 4 4 4 4 4 4 3 3 3 3 3 2 2 2 2 1 1
5 5 5 5 5 5 5 5 5 5 5 4 4 4 4 4 4 4 4 4 4 4 4 4 4 4 4 4 3 3 3 3 3 3 3 3 2 2 2 2 1 1 1 1
4 4 4 4 4 4 4 4 4 4 4 4 4 4 4 4 3 3 3 3 3 3 3 3 3 3 3 3 3 3 3 3 3 3 2 2 2 2 1 1 1 1 0 0
4 4 4 4 4 4 4 4 4 4 3 3 3 3 3 3 3 3 3 3 3 3 3 3 3 3 3 2 2 2 2 2 2 2 2 1 1 1 1 1 1 0 0 -0
3 3 3 3 3 3 3 3 3 3 3 3 3 3 3 2 2 2 2 2 2 2 2 2 2 2 2 2 2 2 2 2 2 1 1 1 1 1 0 0 0 -0 -0 -0
3 2 3 2 2 2 2 2 2 2 2 2 2 2 2 2 2 2 2 2 2 1 1 1 1 1 1 1 1 1 1 1 1 1 1 0 0 0 -0 -0 -0 -0 -0 -1
2 2 2 2 2 2 2 2 2 2 2 2 2 2 1 1 1 1 1 1 1 1 1 1 1 1 1 1 1 1 0 0 0 0 0 -0 -0 -0 -0 -1 -1 -1 -1 -1
2 2 2 1 1 1 1 1 1 1 1 1 1 1 1 1 1 1 1 1 1 0 0 0 0 -0 -0 -0 -0 -0 -0 -0 -0 -0 -1 -1 -1 -1 -1 -1 -1 -1 -1 -1
1 1 1 1 1 1 1 1 1 1 1 0 0 1 1 0 0 0 0 0 0 -0 -0 -0 -1 -1 -1 -1 -1 -1 -1 -1 -1 -1 -1 -1 -1 -1 -1 -1 -1 -1 -1 -1
1 1 1 1 1 1 1 1 0 0 0 -0 -0 -0 -0 -0 -0 -0 -0 -0 -0 -1 -1 -1 -1 -1 -1 -1 -1 -1 -2 -2 -2 -2 -2 -2 -2 -2 -2 -2 -2 -2 -2 -2
Wind_Speed
7 6 4 5 6 4 6 7 7 8 8 11 9 8 7 5 4 3 3 3 3 4 4 3 3 3 4 5 4 5 6 6 6 5 4 4 4 4 3 3 3 3 3 2
4 4 4 6 8 7 6 6 7 7 8 8 6 4 4 4 3 3 4 5 4 4 4 4 4 4 4 4 5 5 6 6 5 4 4 4 4 4 3 3 3 3 3 2
4 5 3 6 7 7 5 5 6 7 8 6 4 5 5 4 4 4 5 5 5 4 5 5 5 5 5 5 4 5 5 5 5 4 4 4 4 4 4 3 3 3 2 2
2 2 6 7 2 4 5 5 5 5 6 5 6 5 4 3 3 5 5 5 4 4 4 4 4 4 4 4 5 5 5 4 4 4 4 4 4 4 3 3 3 3 2 2
2 3 7 6 3 2 4 5 3 5 6 5 4 4 4 4 3 4 5 5 4 4 3 3 3 3 4 4 4 5 5 5 5 5 5 5 4 4 3 3 3 2 2 2
3 3 6 6 5 3 1 4 4 3 4 3 2 2 6 7 5 5 4 3 2 2 1 1 1 3 4 4 4 5 6 5 5 5 6 6 5 4 2 3 3 3 2 2
5 6 7 5 5 1 2 5 5 3 3 2 2 4 5 6 5 4 3 3 2 1 1 1 1 3 3 3 4 4 4 4 4 4 5 5 4 3 3 3 2 2 2 0
4 4 7 3 1 2 5 4 3 3 3 3 4 4 5 5 5 5 4 3 2 0 1 1 2 4 3 3 3 2 3 3 4 4 4 3 4 3 3 3 3 2 2 1
6 6 4 2 3 3 2 3 4 4 4 2 3 4 5 4 5 5 4 4 2 1 1 1 1 3 4 3 2 3 3 3 3 3 3 3 4 4 3 3 3 3 2 1
4 6 5 5 4 4 3 3 4 4 4 2 3 4 5 4 4 4 4 4 2 1 1 1 1 2 3 2 3 3 3 3 3 3 3 2 3 4 4 4 3 3 3 2
5 7 6 5 4 5 5 4 4 4 3 3 3 4 4 4 4 4 4 3 2 1 1 2 2 1 1 2 4 4 3 3 3 3 3 3 2 2 4 4 5 4 4 4
7 6 4 7 6 5 5 5 4 4 4 4 3 4 4 4 4 3 3 3 2 2 2 2 2 2 1 1 3 4 3 2 2 2 2 2 2 1 0 1 3 3 3 2
6 4 5 6 7 5 4 5 4 3 4 4 4 4 3 3 3 3 3 3 3 2 2 2 2 2 1 1 2 3 3 2 2 2 3 3 3 3 1 1 2 2 2 2
5 3 5 5 6 5 4 3 3 3 3 3 4 4 3 3 3 4 4 4 3 2 2 2 2 2 2 1 2 2 2 2 2 2 3 3 3 3 3 3 1 0 0 1
5 5 6 5 4 3 2 2 2 3 4 4 3 3 3 3 4 4 4 3 2 1 2 1 2 3 2 2 2 2 2 2 2 2 2 2 3 3 2 3 2 1 1 0
5 4 3 3 4 4 3 3 3 4 4 4 4 4 4 4 4 4 3 2 1 2 3 2 3 3 1 1 2 1 1 2 2 2 2 2 2 2 2 3 3 2 2 1
2 3 3 4 4 4 4 3 3 4 4 4 5 4 4 3 3 4 4 3 2 2 2 2 3 2 1 1 2 2 2 2 3 2 2 2 2 3 3 3 3 2 2 2
2 4 4 4 4 4 4 4 3 4 4 4 4 3 3 3 4 4 4 3 3 3 2 2 2 2 1 2 2 2 2 2 2 3 2 2 2 2 2 2 2 2 1 1
3 3 3 4 3 3 3 4 4 4 4 3 3 3 4 4 3 4 3 2 3 3 4 3 3 1 1 1 1 2 3 3 2 2 2 3 2 2 2 2 2 2 2 2
4 4 4 4 4 3 3 4 4 4 4 3 3 3 4 4 4 3 2 3 4 4 3 3 2 1 1 1 1 2 3 3 3 3 2 2 2 2 2 2 2 2 2 2
4 4 4 4 4 5 4 3 3 4 4 3 3 3 4 4 4 2 2 4 5 3 3 3 1 1 1 1 1 2 3 3 3 3 3 3 2 2 2 2 2 2 2 2
4 4 4 4 5 5 5 4 3 3 4 4 4 3 3 4 3 3 3 3 3 3 2 1 1 2 1 1 2 2 2 2 2 2 2 3 3 2 2 2 2 2 2 2
4 4 4 4 5 5 5 5 4 4 4 4 4 4 4 3 2 2 4 3 2 3 1 1 2 2 1 2 2 2 2 2 2 2 2 2 2 2 2 2 2 2 2 2
4 4 4 4 4 4 5 6 5 4 4 4 3 4 3 3 3 2 3 4 4 3 1 1 2 1 1 2 2 2 1 1 1 1 1 2 2 1 1 1 1 1 2 2
4 4 4 4 4 4 5 5 5 5 4 3 4 4 3 2 3 3 3 2 3 2 1 1 1 1 2 2 2 1 1 1 1 1 1 1 1 1 1 1 2 2 2 1
4 4 4 4 4 4 3 3 3 4 3 3 4 4 3 2 2 2 2 2 1 1 1 1 1 1 1 1 1 1 1 1 0 1 1 1 1 1 1 1 1 1 1 1
4 3 3 4 4 3 3 3 3 4 3 3 3 3 3 2 2 2 1 1 1 1 1 1 1 1 1 1 2 2 1 1 1 1 1 1 1 1 1 1 1 1 1 2
Wind_Direction
244 249 232 238 248 214 203 205 211 243 248 271 281 278 285 288 296 314 308 286 247 230 227 220 213 214 206 200 193 185 184 191 203 202 190 182 182 183 179 179 179 167 153 146
278 275 250 259 260 240 234 233 235 257 267 268 278 289 297 287 282 287 282 273 257 240 232 228 220 216 210 204 194 183 186 196 196 187 182 181 181 173 164 161 155 142 149 158
268 302 324 273 245 220 224 226 206 232 254 282 297 293 281 281 279 270 273 275 257 243 232 231 224 211 208 207 188 182 189 192 187 182 184 183 175 162 165 168 159 151 163 164
249 350 250 249 264 211 222 244 230 245 274 279 267 276 276 270 271 283 287 279 271 258 246 239 218 206 195 181 176 182 186 188 183 177 176 170 165 170 172 168 170 174 180 187
159 242 273 292 293 225 220 265 256 255 283 297 317 343 320 307 289 273 277 271 261 256 243 228 214 196 172 173 177 182 190 193 190 181 175 172 175 181 179 167 172 181 190 188
162 211 243 259 296 306 175 272 307 283 289 303 32 357 298 314 317 310 308 306 293 286 284 230 220 163 161 176 182 197 199 197 192 184 181 182 186 186 177 170 177 170 182 196
199 227 255 273 300 14 171 265 310 296 291 277 229 243 284 317 327 324 320 319 324 308 252 243 175 143 159 180 210 215 193 177 176 180 182 179 174 171 165 159 148 148 156 186
176 213 255 288 83 166 236 282 303 299 293 269 275 300 316 325 324 326 328 331 328 327 308 313 153 153 170 210 223 179 159 165 172 175 179 167 159 161 157 153 148 149 142 76
197 219 251 241 215 255 265 291 297 301 299 290 302 305 314 318 315 315 318 322 332 337 338 356 173 166 186 218 179 153 152 163 167 164 167 167 166 164 160 165 167 170 167 180
255 266 272 275 279 297 299 283 293 298 300 304 296 295 302 309 313 317 319 320 338 14 350 316 258 202 200 186 163 156 162 170 168 161 161 162 169 168 171 180 185 184 188 197
262 283 307 295 289 291 299 305 313 322 314 293 292 298 295 299 304 306 311 319 330 306 274 292 294 254 213 174 163 163 167 171 172 174 171 168 171 185 190 204 200 194 203 194
240 243 239 272 286 294 294 296 296 310 319 315 297 286 293 297 302 302 303 306 304 310 301 306 308 303 288 184 165 160 161 171 177 175 171 167 160 110 326 210 201 197 190 183
242 260 248 267 286 281 274 281 288 288 292 305 309 295 295 302 305 307 308 303 290 283 287 293 288 292 287 201 163 169 173 180 182 181 178 181 177 169 156 30 68 136 152 163
259 263 275 274 278 281 281 285 295 309 311 305 305 308 308 308 313 310 297 285 280 288 298 295 283 286 271 180 163 167 161 172 178 190 187 184 184 184 178 165 152 30 217 169
279 253 248 272 288 293 297 308 321 318 321 326 321 317 313 308 304 298 294 291 290 307 310 306 296 297 288 176 165 177 177 180 179 174 172 174 172 172 174 173 171 168 127 136
299 306 294 287 288 295 306 307 297 295 307 315 316 313 310 304 305 307 308 303 289 285 286 281 278 283 283 201 167 175 191 197 163 147 148 157 168 175 181 182 181 179 185 185
295 299 302 304 299 295 292 288 280 285 298 304 303 307 318 321 324 325 320 311 294 285 285 275 277 279 247 210 190 188 183 185 161 144 165 176 182 187 184 182 182 184 195 191
258 258 256 260 269 284 296 299 290 289 291 293 301 314 319 314 305 303 309 321 326 321 302 284 281 278 251 220 194 184 180 176 174 175 175 174 172 168 164 169 173 170 167 160
353 342 326 312 299 289 292 296 296 294 296 301 305 304 300 300 299 295 300 310 305 297 297 294 304 324 278 247 208 165 161 161 157 158 159 156 144 146 157 167 174 181 174 173
349 346 340 332 337 334 318 308 307 311 306 301 304 306 308 305 306 303 297 291 282 277 282 291 301 268 245 237 208 157 162 164 164 162 155 157 158 159 163 173 185 187 186 190
332 332 334 334 332 328 321 311 305 303 303 302 293 286 288 294 299 297 293 298 301 298 289 291 298 263 242 216 164 149 158 164 167 167 165 165 165 167 169 174 179 189 200 210
316 319 324 326 325 320 318 316 309 306 309 309 302 295 296 302 306 307 287 274 287 298 308 290 269 265 264 121 129 145 150 152 156 159 161 164 171 182 191 192 194 205 213 215
306 310 313 312 309 310 319 320 314 310 305 299 296 295 291 285 287 292 301 301 297 292 302 270 286 297 68 101 118 134 136 139 147 157 166 172 178 188 196 202 209 215 220 226
306 307 304 306 315 322 316 312 314 312 305 300 296 291 286 293 302 284 271 292 300 295 287 286 306 328 79 100 110 113 115 124 142 161 163 161 167 173 183 197 215 224 224 229
294 297 305 314 315 304 299 306 314 313 313 313 313 307 294 266 269 288 297 293 297 306 336 332 2 40 84 98 106 110 116 147 163 151 149 162 176 183 192 201 213 227 230 234
287 286 284 284 284 287 293 298 298 299 301 312 317 317 316 315 305 302 308 309 311 346 25 39 54 58 77 94 100 101 100 101 99 134 162 176 182 188 196 206 223 233 234 234
291 294 299 304 303 295 289 289 290 294 291 289 301 309 313 321 330 336 344 2 24 46 58 54 62 77 84 88 86 84 82 83 88 101 131 157 179 192 202 208 216 229 238 238
Height
1518 1515 1515 1515 1514 1515 1517 1518 1521 1515 1512 1503 1498 1496 1493 1491 1489 1489 1488 1488 1488 1488 1489 1490 1491 1492 1493 1494 1495 1497 1498 1499 1500 1502 1503 1504 1505 1506 1507 1507 1508 1508 1509 1509
1517 1513 1513 1513 1510 1510 1512 1512 1512 1509 1506 1497 1495 1493 1491 1489 1488 1487 1486 1486 1486 1486 1487 1487 1488 1489 1490 1491 1492 1493 1495 1496 1497 1499 1500 1501 1502 1503 1503 1504 1505 1505 1505 1506
1523 1517 1514 1515 1506 1505 1506 1504 1505 1506 1500 1494 1493 1491 1489 1487 1487 1486 1485 1484 1484 1484 1484 1484 1485 1486 1487 1488 1489 1490 1492 1493 1494 1495 1496 1497 1498 1499 1499 1500 1501 1501 1502 1502
1524 1520 1520 1509 1499 1499 1500 1499 1499 1497 1494 1492 1490 1488 1487 1486 1485 1484 1483 1483 1482 1482 1482 1482 1483 1483 1484 1485 1486 1487 1488 1489 1490 1492 1493 1494 1494 1495 1496 1497 1497 1497 1498 1498
1526 1523 1516 1505 1499 1499 1500 1498 1495 1494 1491 1489 1487 1486 1485 1484 1483 1483 1482 1481 1480 1480 1480 1479 1480 1480 1481 1482 1483 1484 1485 1486 1487 1488 1489 1490 1491 1491 1492 1493 1493 1494 1495 1495
1524 1521 1518 1505 1497 1495 1497 1499 1492 1491 1489 1488 1487 1490 1486 1483 1481 1480 1480 1479 1478 1477 1477 1477 1477 1477 1478 1479 1480 1481 1482 1483 1484 1485 1486 1487 1487 1488 1489 1490 1490 1491 1491 1492
1522 1520 1512 1502 1497 1495 1503 1500 1492 1490 1488 1488 1487 1487 1485 1482 1480 1479 1478 1477 1476 1475 1475 1475 1475 1475 1475 1476 1477 1478 1479 1480 1481 1482 1483 1484 1484 1485 1486 1486 1487 1487 1488 1488
1520 1519 1512 1498 1496 1499 1498 1493 1491 1489 1487 1487 1485 1484 1482 1481 1479 1478 1476 1475 1474 1474 1473 1473 1473 1473 1473 1474 1474 1475 1476 1477 1478 1479 1480 1480 1481 1482 1483 1483 1483 1484 1484 1485
1510 1507 1498 1496 1495 1494 1493 1491 1489 1488 1486 1485 1484 1482 1481 1479 1477 1476 1475 1473 1473 1472 1471 1471 1471 1471 1471 1471 1472 1472 1473 1474 1475 1476 1476 1477 1478 1478 1479 1480 1480 1480 1480 1481
1505 1499 1495 1494 1493 1492 1491 1490 1488 1487 1485 1483 1482 1481 1479 1477 1476 1474 1473 1472 1471 1470 1469 1468 1469 1469 1469 1469 1469 1469 1470 1471 1472 1473 1473 1474 1475 1475 1476 1476 1477 1477 1477 1477
1502 1497 1494 1491 1491 1490 1489 1487 1486 1484 1483 1482 1480 1479 1478 1476 1474 1472 1471 1469 1468 1467 1467 1466 1466 1466 1466 1466 1466 1466 1467 1468 1468 1469 1470 1471 1471 1472 1473 1473 1474 1474 1474 1474
1497 1493 1493 1490 1488 1487 1486 1485 1484 1482 1481 1480 1479 1477 1475 1473 1471 1470 1468 1467 1466 1465 1464 1464 1464 1463 1464 1464 1464 1464 1464 1464 1465 1465 1466 1467 1468 1469 1469 1470 1470 1471 1471 1471
1490 1489 1489 1487 1486 1485 1483 1482 1481 1480 1479 1478 1476 1475 1472 1470 1469 1467 1466 1464 1463 1463 1462 1462 1461 1461 1461 1461 1462 1461 1461 1462 1462 1462 1463 1464 1465 1465 1465 1466 1467 1467 1467 1468
1487 1486 1485 1483 1483 1482 1481 1480 1479 1478 1477 1475 1474 1472 1470 1468 1466 1465 1463 1462 1461 1461 1460 1460 1459 1459 1459 1459 1459 1459 1459 1460 1460 1460 1460 1461 1462 1462 1462 1462 1462 1463 1464 1464
1483 1483 1482 1480 1480 1479 1478 1477 1476 1474 1473 1472 1471 1469 1467 1465 1463 1462 1461 1460 1459 1458 1457 1457 1456 1456 1456 1456 1456 1456 1456 1456 1457 1457 1457 1458 1458 1459 1459 1460 1460 1460 1460 1461
1480 1479 1478 1477 1476 1476 1475 1474 1472 1471 1470 1469 1468 1466 1464 1463 1461 1460 1458 1457 1456 1455 1454 1454 1453 1453 1453 1453 1453 1453 1453 1454 1454 1454 1454 1454 1455 1456 1456 1457 1457 1457 1457 1458
1477 1476 1475 1474 1474 1473 1472 1471 1470 1469 1468 1466 1465 1463 1461 1460 1458 1457 1455 1454 1453 1452 1452 1451 1451 1450 1450 1450 1450 1450 1450 1450 1451 1451 1451 1451 1452 1453 1453 1454 1454 1454 1455 1455
1475 1475 1474 1473 1472 1470 1469 1468 1467 1466 1465 1464 1462 1460 1459 1457 1456 1454 1453 1451 1450 1449 1449 1448 1447 1447 1446 1447 1447 1447 1447 1447 1447 1448 1448 1449 1449 1450 1451 1451 1451 1451 1452 1453
1473 1473 1472 1471 1470 1468 1467 1465 1464 1463 1462 1461 1459 1457 1456 1455 1453 1452 1450 1449 1447 1446 1446 1445 1444 1443 1443 1443 1443 1444 1444 1444 1444 1445 1446 1446 1447 1448 1448 1449 1449 1449 1450 1450
1472 1471 1470 1469 1467 1466 1464 1463 1462 1460 1459 1457 1456 1454 1453 1451 1450 1449 1448 1446 1445 1444 1443 1442 1441 1440 1440 1440 1440 1441 1441 1441 1442 1442 1443 1444 1444 1445 1446 1447 1447 1447 1447 1448
1471 1470 1468 1466 1465 1463 1462 1461 1459 1458 1456 1455 1453 1452 1450 1449 1447 1446 1444 1443 1442 1441 1440 1439 1438 1437 1437 1437 1438 1438 1438 1439 1440 1440 1441 1442 1442 1443 1444 1444 1445 1445 1445 1446
1469 1467 1465 1464 1462 1461 1460 1458 1457 1455 1453 1452 1450 1449 1447 1446 1444 1443 1442 1441 1439 1438 1437 1436 1435 1435 1434 1435 1435 1435 1436 1436 1437 1438 1439 1439 1440 1441 1441 1442 1442 1442 1443 1443
1467 1465 1463 1462 1460 1458 1457 1456 1454 1452 1451 1449 1448 1446 1445 1443 1442 1440 1439 1438 1437 1436 1435 1433 1433 1432 1432 1432 1432 1433 1433 1434 1434 1435 1436 1437 1437 1438 1439 1439 1439 1439 1440 1440
1465 1463 1461 1460 1458 1456 1454 1453 1451 1450 1448 1446 1445 1443 1442 1440 1439 1438 1437 1435 1434 1433 1432 1431 1430 1430 1430 1429 1430 1430 1431 1431 1432 1433 1434 1434 1435 1435 1436 1436 1436 1436 1437 1437
1462 1461 1459 1457 1455 1454 1452 1450 1448 1447 1445 1444 1442 1441 1439 1438 1436 1435 1434 1433 1431 1430 1429 1429 1428 1428 1427 1427 1428 1428 1429 1429 1430 1430 1431 1432 1432 1432 1433 1433 1433 1434 1434 1434
1460 1458 1457 1455 1453 1451 1449 1448 1446 1444 1443 1441 1439 1438 1436 1435 1434 1432 1431 1430 1429 1428 1427 1426 1426 1425 1425 1425 1426 1426 1426 1427 1427 1428 1428 1429 1429 1429 1430 1430 1430 1431 1431 1432
1457 1455 1454 1452 1450 1449 1447 1445 1443 1441 1440 1438 1437 1435 1434 1433 1431 1430 1429 1428 1426 1426 1425 1424 1424 1424 1424 1424 1424 1425 1425 1425 1425 1425 1426 1426 1427 1427 1427 1427 1428 1428 1429 1429